Regional Weather Roundup
Issued by NWS Wakefield, VA

Home | Current Version | Previous Version | Graphics & Text | Print | Product List | Glossary On
Versions: 1 2 3 4 5 6 7 8 9 10 11 12 13 14 15 16 17 18 19 20 21 22 23 24 25 26 27
000
ASUS41 KAKQ 232215
RWRAKQ

REGIONAL WEATHER ROUNDUP
NATIONAL WEATHER SERVICE WAKEFIELD VA
600 PM EDT MON MAY 23 2016

Note: "fair" indicates few or no clouds below 12,000 feet with no
significant weather and/or obstructions to visibility. * = Denotes
station may not report precipitation (e.g., rain,snow,etc.),
thunder or fog.

VAZ042-051-052>054-056-232300-
NORTHERN VIRGINIA

CITY           SKY/WX    TMP DP  RH WIND       PRES   REMARKS
WASH NATIONAL  LGT RAIN  65  58  78 N13       29.92R
DULLES         TSTM      59  56  89 E14       29.95R FOG
FORT BELVOIR   FAIR      64  58  81 W5        29.91S
QUANTICO       CLOUDY    65  60  84 NW5       29.92S
FREDERICKSBRG* FAIR      70  55  60 CALM      29.91S
STAFFORD*      FAIR      66  56  71 NW5       29.96S
WARRENTON      LGT RAIN  60  52  75 S5        29.91F
CULPEPER*      TSTM      59  57  92 S7        29.95R
MANASSAS*      PTSUNNY   63  59  88 SE6       29.92F
LEESBURG*      TSTM      73  55  53 NE22G38   29.92R
WINCHESTER     PTSUNNY   72  48  43 N12G17    29.93R
FRONT ROYAL*   MOCLDY    72  52  49 NW5       29.92R
LURAY*         MOCLDY    72  48  43 CALM      29.93S
$$

VAZ048-049-060>072-079>083-232300-
CENTRAL AND SOUTH CENTRAL VIRGINIA

CITY           SKY/WX    TMP DP  RH WIND       PRES   REMARKS
RICHMOND       PTSUNNY   68  50  52 NW8       29.92S
CHESTERFIELD*  FAIR      68  45  42 W7        29.94S
PETERSBURG*    FAIR      68  55  62 NW6       29.94S
HANOVER        FAIR      67  53  61 NW3       29.94S
TAPPAHANNOCK*  FAIR      70  53  54 CALM      29.92S
QUINTON*       FAIR      67  53  60 CALM      29.91S
CHARLOTTSVILLE FAIR      69  50  50 S7        29.94F
GORDONSVILLE*  FAIR      65  55  70 SW3       29.94R
ORANGE*        FAIR      64  57  77 CALM      29.95S
LOUISA*        FAIR      70  57  64 CALM      29.93S
BUMPASS*       FAIR      65  55  70 CALM      29.92S
FARMVILLE*     CLOUDY    64  56  75 CALM      29.94F
CREWE*         MOCLDY    68  51  55 N3        29.95S
FORT PICKETT*  NOT AVBL
CHASE CITY*    MOCLDY    64  53  67 W5        29.97F
CLARKSVILLE*   CLOUDY    64  50  59 CALM      29.97F
SOUTH HILL*    CLOUDY    66  50  57 CALM      30.01S
LAWRENCEVILLE* CLOUDY    65  52  64 CALM      29.95S
EMPORIA*       CLOUDY    63  54  72 CALM      29.96R
$$

VAZ088>098-232300-
SOUTHEAST VIRGINIA

CITY           SKY/WX    TMP DP  RH WIND       PRES   REMARKS
NORFOLK        FAIR      63  55  75 NE8       29.90F
VIRGINIA BEACH PTSUNNY   67  52  58 NE10      29.90S
NORFOLK NAVAL  PTSUNNY   65  53  65 N8        29.92S
WEST POINT*    FAIR      67  51  55 CALM      29.92F
SALUDA*        FAIR      65  55  70 CALM      29.90S
NEWPORT NEWS   FAIR      65  54  67 N7        29.91S
LANGLEY AFB    FAIR      66  53  61 N9        29.91S
FORT EUSTIS    FAIR      66  53  63 N5        29.90S
WILLIAMSBURG*  FAIR      66  57  72 CALM      29.92F
HR EXEC AP*    FAIR      64  54  68 CALM      29.93S
FRANKLIN*      PTSUNNY   65  53  65 NW5       29.93S
US460-WAKEFLD  FAIR      66  54  65 N3        29.92S
$$

VAZ020-022-025-037-045-232300-
WEST CENTRAL AND SOUTHWEST VIRGINIA

CITY           SKY/WX    TMP DP  RH WIND       PRES   REMARKS
STAUNTON*      FAIR      69  54  58 SW6       29.98R
WAYNESBORO*    FAIR      66  52  59 S5        29.97S
HOT SPRINGS VA CLOUDY    56  52  84 S7        30.03R
LYNCHBURG      PTSUNNY   62  57  83 S5        30.00R
DANVILLE       CLOUDY    67  51  56 CALM      29.99R
SOUTH BOSTON*  CLOUDY    61  56  84 CALM      29.99S
MARTINSVILLE   PTSUNNY   61  54  78 CALM      30.03S
ROANOKE        PTSUNNY   69  47  45 CALM      30.00S
BLACKSBURG     FAIR      62  52  70 NW6       30.06S
DUBLIN*        LGT RAIN  59  55  87 CALM      30.06R
MARION*        PTSUNNY   65  49  56 W6        30.08S
HILLSVILLE*    CLOUDY    62  47  58 CALM      30.04R
RICHLANDS*     CLOUDY    63  31  30 NW5       30.06S
WISE*          FAIR      68  41  37 NE6       30.07S
ABINGDON*      CLOUDY    67  47  49 E6        30.04S
$$

MDZ021>025-VAZ099-100-232300-
SOUTHERN MARYLAND AND THE DELMARVA PENINSULA

CITY           SKY/WX    TMP DP  RH WIND       PRES   REMARKS
PATUXENT RIVER LGT RAIN  65  57  75 E8        29.89S
BAY BRIDGE APT CLOUDY    61  55  82 NW10G18   29.93R
LEONARDTOWN    CLOUDY    63  57  82 W5        29.90F
DOVER          CLOUDY    65  57  77 SE12      29.89R
GEORGETOWN     CLOUDY    64  48  56 E7        29.90S
EASTON         CLOUDY    64  63  94 CALM      29.93S
CAMBRIDGE      CLOUDY    64  54  68 CALM      29.89S
SALISBURY      CLOUDY    65  49  56 E7        29.90R
OCEAN CITY     CLOUDY    60  49  66 NE8       29.90S
WALLOPS ISLAND PTSUNNY   63  51  65 NE12      29.91R
ACCOMACK*      CLOUDY    64  54  68 CALM      29.90S
$$

NCZ012>017-030>032-232300-
NORTH CENTRAL AND EASTERN NORTH CAROLINA

CITY           SKY/WX    TMP DP  RH WIND       PRES   REMARKS
ROANOKE RAPIDS MOCLDY    63  50  63 NW5       29.95S
RALEIGH        MOSUNNY   68  51  54 NE5       29.98S
ELIZABETH CITY CLOUDY    63  54  72 NW12      29.91R
AHOSKIE*       PTSUNNY   62  55  77 CALM      29.94S
EDENTON*       CLOUDY   N/A N/A N/A N6        29.93R
CURRITUCK*     PTSUNNY   64  52  65 N12G18    29.91S
KILL DEVIL HLS CLOUDY    61  52  73 N7        29.89R
MANTEO         CLOUDY    60  55  81 NE14      29.90S
CAPE HATTERAS  CLOUDY    61  57  87 N8        29.89R
TARBORO*       CLOUDY    59  55  89 CALM      29.96S
GOLDSBORO      CLOUDY    66  55  66 N6        29.94R
WASHINGTON     PTSUNNY   64  55  73 NW6       29.94R
GREENVILLE     CLOUDY    63  55  77 N7        29.97R
NEW BERN       CLOUDY    63  57  81 CALM      29.94R
WILMINGTON     CLOUDY    66  55  67 NW15G23   29.94S
$$

VAZ048-232300-
ELSEWHERE

CITY           SKY/WX    TMP DP  RH WIND       PRES   REMARKS
HARRISBURG PA  LGT RAIN  64  57  78 NW7       29.89F
BALTIMORE      RAIN      58  55  90 E14       29.97R FOG
ANNAPOLIS      RAIN      61  54  77 NW21G28   29.92R
ANDREWS AFB    FAIR      67  54  62 N15       29.90R
PHILADELPHIA   CLOUDY    73  53  49 E6        29.86S THUNDER
HENDERSON NC   SUNNY     63  47  55 NE3       29.98S
GREENSBORO     PTSUNNY   68  48  48 NE9       29.99S
ROCKY MOUNT    CLOUDY    61  55  81 NE6       29.96R
$$

VAZ100-232300-
MARINE

STATION/POSITION TIME  TEMP    WIND        PRES    WAVE   SWELL
                       AIR SEA DIR/SP/G            HT/PER HT/PER
                 (UTC) (F)     (DEG/KT/KT) (MB)    (FT/S) (FT/S)
BRANDYWINE LGT   2112   61     110/ 11/ 12 1012.4F
CAPE MAY NJ      2100   61 63   90/  6/ 10 1012.2F
LEWES DE         2100   60 60  100/  9/ 11 1012.4F
15NM E FENWICK I 2150   57 55              1012.0F   5/ 7
OCEAN-CITY-INLET 2130   60 61   40/  7/ 10 1011.7
WACHAPREAGUE VA  2100   62 66   50/ 11/ 13 1012.0S
THOMAS POINT MD  2200   64 60  350/ 19/ 22 1014.4R
GOOSES REEF MD   2200   64 62  250/  2     1013.1F   0
COVE POINT MD    2100   65     170/  2/  3 1012.9F
SOLOMONS ISLAND  2100   65 63   90/  3/  4   N/A
BISHOPS HEAD MD  2100   63 63  260/  5/  7 1012.3F
PINEY POINT MD   2100          270/  1/  1   N/A
POTOMAC MD       2200   64 63  280/  2/  2 1011.5F   0
CAMBRIDGE MD     2100   66 63  350/  8/ 10 1011.3F
LEWISETTA VA     2100   66 62  330/  3/  4 1012.2F
RAPPAHANNOCK LGT 2100          340/ 10/ 10 1013.1S
STINGRAY PT      2200   64 63  310/  6/  6 1012.9F   1
YORK RVR RNG VA  2100   64      10/ 14/ 15 1012.0F
YORKTOWN VA      2100   65 65  340/ 10/ 12 1012.5S
JAMESTOWN VA     2200   65 66  340/  4/  6   N/A     0
DOMINION TERM VA 2100   65      20/  7/ 10 1012.8R
KIPTOPEKE VA     2100      63   70/  5/  7   N/A
CHES BAY BRIDGE  2100   63 63  350/ 15/ 18 1012.4F
CAPE HENRY VA    2100   61      30/ 12/ 14   N/A
CHESAPEAKE LGHT  2100   59      20/ 20/ 22 1012.6F
WILLOUBY STN VA  2100   64     360/ 15/ 17 1013.6R
CAPE HENRY BUOY  2112      59                N/A     5/ 8
1ST LANDING BUOY 2200   62 63   50/  8/ 12 1012.7S   3/ 4
CAPE CHARLES BUO 2126      60                N/A     5/ 9   3/ 9
OFFSHORE WE BUOY 2121      58                N/A     6/ 9   3/ 9
64NM E OF VA BCH 2150   55 57  360/ 17/ 21 1010.6S   8/ 8   7/ 8
DUCK PIER NC     2100   59 63   20/ 15/ 17 1011.4R
44100 DUCK FRF   2124      58                N/A     6/ 8   2/11
44056 DUCK FRF   2111      61                N/A     5/ 8   2/11
OREGON INLET NC  2100   60 65  350/ 10/ 17 1012.0R
HATTERAS NC      2100   62 67  330/ 14/ 16 1011.5R
DIAMOND SHLS NC  2150   60 67  340/ 10/ 12 1012.2R   3/ 9   2/ 9
CC1F1C2F2C3F3C4F4C5F5C6F6C7F7C8M1C9!



USA.gov is the U.S. government's official web portal to all federal, state and local government web resources and services.